Fairbanks, AK (99701)

8:37 PM AKST on February 26, 2017 (GMT -0900)
200 Slater Dr. | | Change Station
Active Advisory: Special Statement

Elev 450 ft 64.84 °N, 147.70 °W | Updated 2 seconds ago

Overcast
Overcast
27.9 °F
Feels Like 23 °F
N
4.0
Wind Variable Wind from West
Gusts 5.0 mph

Today
High -- | Low -- °F
--% Chance of Precip.
Yesterday
High -- | Low -- °F
Precip. -- in
Pressure 30.10 in
Visibility 10.0 miles
Clouds Few 3300 ft
Overcast 6500 ft
Windchill 23 °F
Dew Point 24 °F
Humidity 84%
Rainfall 0.00 in
Snow Depth Not available.
8:09 AM 5:59 PM
New Moon, 0% visible
METAR PAFB 270458Z AUTO 22006KT 10SM FEW033 OVC065 M03/M07 A3007 RMK AO2 SLP191
Pressure 30.10 in
Visibility 10.0 miles
Clouds Few 3300 ft
Overcast 6500 ft
Windchill 23 °F
Dew Point 24 °F
Humidity 84%
Rainfall 0.00 in
Snow Depth Not available.
8:09 AM 5:59 PM
New Moon, 0% visible
METAR PAFB 270458Z AUTO 22006KT 10SM FEW033 OVC065 M03/M07 A3007 RMK AO2 SLP191

Get Your Daily Forecast Email!

Thanks for signing up!

Be on the lookout for a verification email in your inbox.

You'll start receiving the daily forecast at 8 AM.

×

10-Day Weather Forecast

Almanac

Astronomy

Feb. 26, 2017 Rise Set
Actual Time
Civil Twilight
Nautical Twilight
Astronomical Twilight
Moon
Length of Visible Light
Length of Day
Tomorrow will be .
, % of the Moon is Illuminated

Today's Extremes

State Highs State Lows

Community

WunderPhotos

Upload Photos

1,962,540 photos uploaded!

WunderBlog® & News

Nearby

Air Quality

  Air Quality AQ Index Pollutant
Not available.

Snow Depth

Station Depth Elevation

Earthquake Activity

City Distance Mag. Time & Date
Minimum magnitude displayed is 2.5.

Coastal Water Temperatures

Place Temperature

Stations

Nearby Weather Stations

Station Location Temp. Windchill Dew Point Humidity Wind Precip. Elev Updated Type
                   

Watches & Warnings

Special Statement
Issued: 7:28 PM AKST Feb. 26, 2017 – National Weather Service

... Fairbanks snowload...

Snowload measured by the National Weather Service near the
Fairbanks International Airport is currently 25 pounds per
square foot.


728 PM akst sun Feb 26 2017

... Fairbanks snowload...

Snowload measured by the National Weather Service near the
Fairbanks International Airport is currently 25 pounds per
square foot.



728 PM akst sun Feb 26 2017

... Fairbanks snowload...

Snowload measured by the National Weather Service near the
Fairbanks International Airport is currently 25 pounds per
square foot.